This is the latest recevied weather packets stored in our database for station/object OE-11373. If no packets are shown the sender has not sent any weather packets the latest 10 day(s).
| Time | Temp. | Humidity | Pressure | Rain* | Wind** | Luminosity | Snow |
|---|---|---|---|---|---|---|---|
| 1788096312 | 22.22° C | 48% | 853.4 hPa | - | - | - | - |
| 1788095486 | 22.22° C | 47% | 853.6 hPa | - | - | - | - |
| 1788095113 | 21.67° C | 52% | 853.6 hPa | - | - | - | - |
| 1788094513 | 22.22° C | 51% | 853.7 hPa | - | - | - | - |
| 1788093686 | 21.67° C | 54% | 853.7 hPa | - | - | - | - |
| 1788093313 | 20.56° C | 52% | 853.6 hPa | - | - | - | - |
| 1788092713 | 21.11° C | 54% | 853.8 hPa | - | - | - | - |
| 1788091885 | 21.67° C | 54% | 853.9 hPa | - | - | - | - |
| 1788091513 | 21.11° C | 56% | 853.9 hPa | - | - | - | - |
| 1788090913 | 20.56° C | 55% | 853.8 hPa | - | - | - | - |
| 1788090085 | 20.56° C | 56% | 853.8 hPa | - | - | - | - |
| 1788089712 | 20° C | 55% | 853.9 hPa | - | - | - | - |
| 1788089113 | 20.56° C | 56% | 854 hPa | - | - | - | - |
| 1788088286 | 19.44° C | 56% | 853.9 hPa | - | - | - | - |
| 1788087913 | 19.44° C | 55% | 853.8 hPa | - | - | - | - |
| 1788087313 | 19.44° C | 57% | 853.9 hPa | - | - | - | - |
| 1788086486 | 18.89° C | 57% | 853.9 hPa | - | - | - | - |
| 1788086113 | 18.89° C | 56% | 853.9 hPa | - | - | - | - |
| 1788085513 | 19.44° C | 57% | 854 hPa | - | - | - | - |
| 1788084686 | 19.44° C | 56% | 854.2 hPa | - | - | - | - |
| 1788084313 | 18.89° C | 56% | 854.1 hPa | - | - | - | - |
| 1788083712 | 19.44° C | 56% | 854.2 hPa | - | - | - | - |
| 1788082886 | 18.89° C | 55% | 854.2 hPa | - | - | - | - |
| 1788082513 | 18.33° C | 57% | 854.1 hPa | - | - | - | - |
| 1788081912 | 18.33° C | 58% | 854.2 hPa | - | - | - | - |
* Rain since midnight (hover to see other rain measurements)
** Current wind speed in m/s (hover to see current wind gust speed)